N70EU EDDG-EDDN

Flight info

Callsign N70EU
Flight time 1h 1m
Altitude 23000
Route DOMEG3Z/25 DOMEG Z841 GMH Q603 TESGA Z719 ETOLU Z723 KOMIB T193 ERTES T194 DODAS DODAS1V
Aircraft B350/L-SBGRW/S

Departure

Time 2026-04-14 13:32
Airport Münster Osnabrück Airport (EDDG)

Arrival

Time 2026-04-14 14:33
Airport Nuremberg Airport (EDDN)
Time Latitude Longitude Altitude Speed Heading
2026-04-14 12:52 52.13217 7.68828 163 ft 0 kts 161°
2026-04-14 13:26 52.13216 7.68829 163 ft 1 kts 161°
2026-04-14 13:26 52.13205 7.68858 163 ft 5 kts 86°
2026-04-14 13:27 52.13241 7.68909 163 ft 9 kts 351°
2026-04-14 13:27 52.13315 7.68864 163 ft 12 kts 343°
2026-04-14 13:27 52.13384 7.68933 163 ft 14 kts 69°
2026-04-14 13:27 52.13418 7.69095 163 ft 16 kts 70°
2026-04-14 13:28 52.13456 7.69276 163 ft 17 kts 71°
2026-04-14 13:28 52.13497 7.69473 163 ft 19 kts 71°
2026-04-14 13:28 52.13542 7.69684 162 ft 20 kts 71°
2026-04-14 13:28 52.13585 7.69888 162 ft 16 kts 71°
2026-04-14 13:29 52.13638 7.70015 162 ft 9 kts 29°
2026-04-14 13:29 52.13676 7.70033 162 ft 0 kts
2026-04-14 13:30 52.13702 7.70030 162 ft 6 kts 348°
2026-04-14 13:30 52.13762 7.69988 162 ft 11 kts 309°
2026-04-14 13:30 52.13766 7.69918 162 ft 0 kts 250°
2026-04-14 13:31 52.13765 7.69912 162 ft 10 kts 249°
2026-04-14 13:31 52.13633 7.69303 163 ft 95 kts 257°
2026-04-14 13:31 52.13369 7.68033 244 ft 131 kts 250°
2026-04-14 13:31 52.13064 7.66645 730 ft 135 kts 252°
2026-04-14 13:32 52.12751 7.65156 1245 ft 141 kts 244°
2026-04-14 13:32 52.12048 7.64076 1779 ft 146 kts 201°
2026-04-14 13:32 52.11046 7.63789 2366 ft 145 kts 190°
2026-04-14 13:32 52.10091 7.63680 2995 ft 139 kts 182°
2026-04-14 13:33 52.09113 7.63692 3494 ft 143 kts 181°
2026-04-14 13:33 52.08123 7.63637 4030 ft 143 kts 187°
2026-04-14 13:33 52.07151 7.63490 4621 ft 142 kts 192°
2026-04-14 13:33 52.06176 7.63247 5154 ft 146 kts 188°
2026-04-14 13:34 52.04089 7.63092 6084 ft 162 kts 183°
2026-04-14 13:34 52.02886 7.63032 6419 ft 177 kts 185°
2026-04-14 13:34 52.01643 7.62920 6785 ft 186 kts 186°
2026-04-14 13:35 52.00337 7.62773 7223 ft 189 kts 186°
2026-04-14 13:35 51.99029 7.62610 7693 ft 190 kts 187°
2026-04-14 13:35 51.97715 7.62439 8166 ft 190 kts 187°
2026-04-14 13:35 51.96390 7.62260 8631 ft 190 kts 187°
2026-04-14 13:36 51.95092 7.62082 9071 ft 190 kts 187°
2026-04-14 13:36 51.93773 7.61900 9486 ft 190 kts 188°
2026-04-14 13:36 51.92461 7.61718 9873 ft 191 kts 188°
2026-04-14 13:36 51.91130 7.61532 10239 ft 192 kts 188°
2026-04-14 13:37 51.89808 7.61347 10590 ft 193 kts 188°
2026-04-14 13:37 51.88456 7.61159 10935 ft 194 kts 188°
2026-04-14 13:37 51.87107 7.60970 11272 ft 195 kts 188°
2026-04-14 13:37 51.85760 7.60782 11604 ft 196 kts 188°
2026-04-14 13:38 51.84403 7.60593 11923 ft 197 kts 188°
2026-04-14 13:38 51.83035 7.60402 12242 ft 198 kts 188°
2026-04-14 13:38 51.81652 7.60210 12558 ft 198 kts 188°
2026-04-14 13:38 51.80291 7.60020 12859 ft 199 kts 188°
2026-04-14 13:39 51.78899 7.59826 13156 ft 199 kts 188°
2026-04-14 13:39 51.77531 7.59636 13438 ft 200 kts 188°
2026-04-14 13:39 51.76133 7.59442 13721 ft 200 kts 188°
2026-04-14 13:39 51.74756 7.59251 13995 ft 200 kts 188°
2026-04-14 13:40 51.73365 7.59058 14274 ft 201 kts 188°
2026-04-14 13:40 51.71979 7.58868 14551 ft 201 kts 187°
2026-04-14 13:40 51.70573 7.59020 14811 ft 203 kts 170°
2026-04-14 13:40 51.69216 7.59674 15060 ft 205 kts 163°
2026-04-14 13:41 51.67871 7.60451 15308 ft 205 kts 162°
2026-04-14 13:41 51.66527 7.61235 15572 ft 208 kts 162°
2026-04-14 13:41 51.65150 7.62030 15894 ft 208 kts 162°
2026-04-14 13:41 51.63793 7.62810 16250 ft 209 kts 162°
2026-04-14 13:42 51.62424 7.63598 16696 ft 211 kts 162°
2026-04-14 13:42 51.61056 7.64383 17195 ft 209 kts 163°
2026-04-14 13:42 51.59688 7.65166 17680 ft 208 kts 163°
2026-04-14 13:42 51.58335 7.65939 18139 ft 207 kts 163°
2026-04-14 13:43 51.56975 7.66714 18579 ft 207 kts 163°
2026-04-14 13:43 51.55614 7.67488 18989 ft 208 kts 163°
2026-04-14 13:43 51.54262 7.68257 19390 ft 208 kts 163°
2026-04-14 13:43 51.52887 7.69038 19779 ft 209 kts 163°
2026-04-14 13:44 51.51521 7.69813 20160 ft 209 kts 163°
2026-04-14 13:44 51.50153 7.70588 20533 ft 209 kts 163°
2026-04-14 13:44 51.48783 7.71365 20903 ft 209 kts 163°
2026-04-14 13:44 51.47417 7.72139 21255 ft 210 kts 163°
2026-04-14 13:45 51.46028 7.72924 21609 ft 210 kts 163°
2026-04-14 13:45 51.44671 7.73692 21948 ft 210 kts 163°
2026-04-14 13:45 51.43299 7.74468 22281 ft 210 kts 163°
2026-04-14 13:45 51.41926 7.75244 22605 ft 210 kts 163°
2026-04-14 13:46 51.40530 7.76031 22807 ft 217 kts 163°
2026-04-14 13:46 51.39086 7.76844 23016 ft 222 kts 163°
2026-04-14 13:46 51.37612 7.77674 23178 ft 230 kts 163°
2026-04-14 13:46 51.36062 7.78546 23195 ft 244 kts 163°
2026-04-14 13:47 51.34419 7.79471 23198 ft 258 kts 163°
2026-04-14 13:47 51.32687 7.80445 23195 ft 269 kts 163°
2026-04-14 13:47 51.30879 7.81461 23188 ft 279 kts 162°
2026-04-14 13:47 51.29031 7.82500 23184 ft 288 kts 162°
2026-04-14 13:48 51.27117 7.83576 23185 ft 296 kts 162°
2026-04-14 13:48 51.25153 7.84678 23180 ft 303 kts 162°
2026-04-14 13:48 51.23137 7.85810 23178 ft 309 kts 162°
2026-04-14 13:48 51.21089 7.86958 23177 ft 315 kts 162°
2026-04-14 13:49 51.19018 7.88127 23171 ft 320 kts 161°
2026-04-14 13:49 51.16969 7.89541 23171 ft 324 kts 155°
2026-04-14 13:49 51.14981 7.91317 23171 ft 327 kts 149°
2026-04-14 13:49 51.13058 7.93271 23167 ft 329 kts 148°
2026-04-14 13:50 51.11150 7.95222 23167 ft 330 kts 148°
2026-04-14 13:50 51.09200 7.97213 23164 ft 332 kts 148°
2026-04-14 13:50 51.07244 7.99206 23165 ft 333 kts 148°
2026-04-14 13:50 51.05306 8.01178 23162 ft 333 kts 148°
2026-04-14 13:51 51.03343 8.03172 23162 ft 334 kts 148°
2026-04-14 13:51 51.01384 8.05159 23162 ft 334 kts 148°
2026-04-14 13:51 50.99440 8.07127 23164 ft 335 kts 148°
2026-04-14 13:51 50.97472 8.09115 23166 ft 335 kts 148°
2026-04-14 13:52 50.95519 8.11088 23166 ft 335 kts 148°
2026-04-14 13:52 50.93552 8.13071 23169 ft 335 kts 148°
2026-04-14 13:52 50.91575 8.15063 23173 ft 335 kts 148°
2026-04-14 13:52 50.89617 8.17033 23177 ft 335 kts 148°
2026-04-14 13:53 50.87648 8.19012 23169 ft 336 kts 148°
2026-04-14 13:53 50.85674 8.20994 23172 ft 336 kts 148°
2026-04-14 13:53 50.83682 8.22994 23172 ft 335 kts 148°
2026-04-14 13:53 50.81722 8.24958 23174 ft 335 kts 148°
2026-04-14 13:54 50.79764 8.26918 23173 ft 335 kts 148°
2026-04-14 13:54 50.77781 8.28902 23173 ft 335 kts 148°
2026-04-14 13:54 50.75812 8.30869 23173 ft 335 kts 148°
2026-04-14 13:54 50.73858 8.32819 23173 ft 335 kts 148°
2026-04-14 13:55 50.71869 8.34803 23174 ft 335 kts 148°
2026-04-14 13:55 50.69904 8.36760 23172 ft 335 kts 148°
2026-04-14 13:55 50.67948 8.38707 23173 ft 335 kts 148°
2026-04-14 13:55 50.65955 8.40688 23171 ft 335 kts 148°
2026-04-14 13:56 50.64014 8.42616 23172 ft 335 kts 148°
2026-04-14 13:56 50.62049 8.44566 23173 ft 335 kts 148°
2026-04-14 13:56 50.60077 8.46520 23171 ft 335 kts 148°
2026-04-14 13:56 50.58099 8.48478 23172 ft 335 kts 148°
2026-04-14 13:57 50.56133 8.50423 23172 ft 335 kts 149°
2026-04-14 13:57 50.54142 8.52391 23172 ft 334 kts 148°
2026-04-14 13:57 50.52177 8.54330 23173 ft 334 kts 148°
2026-04-14 13:57 50.50206 8.56275 23173 ft 334 kts 148°
2026-04-14 13:58 50.48242 8.58210 23174 ft 334 kts 149°
2026-04-14 13:58 50.46274 8.60162 23172 ft 334 kts 147°
2026-04-14 13:58 50.44358 8.62266 23170 ft 334 kts 144°
2026-04-14 13:58 50.42547 8.64541 23175 ft 335 kts 140°
2026-04-14 13:59 50.40787 8.66945 23170 ft 334 kts 140°
2026-04-14 13:59 50.39035 8.69344 23173 ft 334 kts 140°
2026-04-14 13:59 50.37295 8.71723 23173 ft 334 kts 140°
2026-04-14 13:59 50.35536 8.74124 23171 ft 334 kts 140°
2026-04-14 14:00 50.33790 8.76500 23170 ft 333 kts 140°
2026-04-14 14:00 50.32058 8.78849 23174 ft 333 kts 140°
2026-04-14 14:00 50.30303 8.81229 23174 ft 333 kts 140°
2026-04-14 14:00 50.28613 8.83726 23144 ft 334 kts 130°
2026-04-14 14:01 50.27529 8.86915 23187 ft 333 kts 110°
2026-04-14 14:01 50.26737 8.90302 23169 ft 334 kts 110°
2026-04-14 14:01 50.25914 8.93708 23174 ft 334 kts 111°
2026-04-14 14:01 50.25124 8.97110 23172 ft 334 kts 110°
2026-04-14 14:02 50.24359 9.00511 23159 ft 335 kts 110°
2026-04-14 14:02 50.23597 9.03949 23155 ft 334 kts 110°
2026-04-14 14:02 50.22838 9.07395 23159 ft 334 kts 109°
2026-04-14 14:02 50.22085 9.10821 23160 ft 334 kts 110°
2026-04-14 14:03 50.21332 9.14248 23156 ft 333 kts 109°
2026-04-14 14:03 50.20582 9.17655 23153 ft 332 kts 109°
2026-04-14 14:03 50.19831 9.21066 23154 ft 331 kts 110°
2026-04-14 14:03 50.19091 9.24420 23156 ft 330 kts 110°
2026-04-14 14:04 50.18486 9.27866 23123 ft 331 kts 97°
2026-04-14 14:04 50.18397 9.31442 23174 ft 329 kts 92°
2026-04-14 14:04 50.18315 9.35000 23164 ft 329 kts 91°
2026-04-14 14:04 50.18297 9.38562 23157 ft 330 kts 90°
2026-04-14 14:05 50.18311 9.42168 23157 ft 330 kts 89°
2026-04-14 14:05 50.18340 9.45720 23153 ft 330 kts 89°
2026-04-14 14:05 50.18376 9.49267 23155 ft 329 kts 89°
2026-04-14 14:05 50.18415 9.52828 23155 ft 329 kts 89°
2026-04-14 14:06 50.18457 9.56411 23160 ft 329 kts 89°
2026-04-14 14:06 50.18498 9.59968 23154 ft 329 kts 89°
2026-04-14 14:06 50.18538 9.63547 23158 ft 329 kts 89°
2026-04-14 14:06 50.18578 9.67093 23157 ft 329 kts 90°
2026-04-14 14:07 50.18616 9.70642 23159 ft 329 kts 90°
2026-04-14 14:07 50.18653 9.74243 23097 ft 331 kts 90°
2026-04-14 14:07 50.18689 9.77857 22685 ft 338 kts 90°
2026-04-14 14:07 50.18726 9.81554 22301 ft 341 kts 90°
2026-04-14 14:08 50.18760 9.85219 21913 ft 339 kts 90°
2026-04-14 14:08 50.18794 9.88865 21511 ft 336 kts 90°
2026-04-14 14:08 50.18826 9.92473 21132 ft 333 kts 90°
2026-04-14 14:08 50.18857 9.96052 20746 ft 330 kts 90°
2026-04-14 14:09 50.18874 9.99635 20344 ft 327 kts 92°
2026-04-14 14:09 50.18388 10.03035 19925 ft 323 kts 115°
2026-04-14 14:09 50.17145 10.05936 19575 ft 318 kts 130°
2026-04-14 14:09 50.15783 10.08610 19207 ft 316 kts 130°
2026-04-14 14:10 50.14383 10.11265 18820 ft 315 kts 131°
2026-04-14 14:10 50.12985 10.13874 18427 ft 314 kts 131°
2026-04-14 14:10 50.11583 10.16467 18053 ft 313 kts 131°
2026-04-14 14:10 50.10172 10.19064 17685 ft 313 kts 131°
2026-04-14 14:11 50.08770 10.21637 17305 ft 311 kts 130°
2026-04-14 14:11 50.07421 10.24282 16896 ft 312 kts 123°
2026-04-14 14:11 50.06442 10.27272 16562 ft 310 kts 116°
2026-04-14 14:11 50.05509 10.30296 16149 ft 310 kts 116°
2026-04-14 14:12 50.04593 10.33278 15761 ft 308 kts 116°
2026-04-14 14:12 50.03666 10.36298 15388 ft 306 kts 115°
2026-04-14 14:12 50.02761 10.39252 14986 ft 303 kts 115°
2026-04-14 14:12 50.01863 10.42177 14584 ft 300 kts 116°
2026-04-14 14:13 50.00964 10.45105 14198 ft 296 kts 116°
2026-04-14 14:13 50.00090 10.47951 13817 ft 291 kts 115°
2026-04-14 14:13 49.99227 10.50760 13432 ft 285 kts 116°
2026-04-14 14:13 49.98387 10.53485 13029 ft 279 kts 116°
2026-04-14 14:14 49.97552 10.56194 12649 ft 272 kts 115°
2026-04-14 14:14 49.96755 10.58777 12251 ft 264 kts 115°
2026-04-14 14:14 49.95939 10.61286 11863 ft 253 kts 123°
2026-04-14 14:14 49.94691 10.63056 11474 ft 242 kts 153°
2026-04-14 14:15 49.93153 10.63981 11108 ft 235 kts 161°
2026-04-14 14:15 49.91616 10.64811 10729 ft 232 kts 161°
2026-04-14 14:15 49.90093 10.65629 10351 ft 231 kts 162°
2026-04-14 14:15 49.88623 10.66412 10261 ft 221 kts 162°
2026-04-14 14:16 49.87148 10.67195 10263 ft 223 kts 162°
2026-04-14 14:16 49.85674 10.67976 10263 ft 226 kts 162°
2026-04-14 14:16 49.84168 10.68772 10264 ft 231 kts 162°
2026-04-14 14:17 49.81033 10.70357 10263 ft 244 kts 170°
2026-04-14 14:17 49.79307 10.70714 10270 ft 251 kts 174°
2026-04-14 14:17 49.77541 10.71024 10269 ft 260 kts 174°
2026-04-14 14:17 49.75711 10.71334 10276 ft 269 kts 175°
2026-04-14 14:18 49.73832 10.71648 10273 ft 277 kts 175°
2026-04-14 14:18 49.71877 10.71974 10265 ft 283 kts 175°
2026-04-14 14:18 49.69910 10.72303 10258 ft 285 kts 175°
2026-04-14 14:18 49.67926 10.72667 10251 ft 285 kts 171°
2026-04-14 14:19 49.66110 10.73864 10247 ft 286 kts 144°
2026-04-14 14:19 49.64830 10.76199 10241 ft 287 kts 118°
2026-04-14 14:19 49.63986 10.78951 10248 ft 286 kts 121°
2026-04-14 14:19 49.62876 10.81478 10262 ft 286 kts 121°
2026-04-14 14:20 49.62264 10.84397 10292 ft 285 kts 101°
2026-04-14 14:20 49.61953 10.87437 10069 ft 288 kts 99°
2026-04-14 14:20 49.61660 10.90450 9688 ft 285 kts 99°
2026-04-14 14:20 49.61369 10.93451 9308 ft 282 kts 98°
2026-04-14 14:21 49.61082 10.96409 8931 ft 280 kts 98°
2026-04-14 14:21 49.60796 10.99355 8548 ft 278 kts 98°
2026-04-14 14:21 49.60510 11.02285 8162 ft 276 kts 98°
2026-04-14 14:21 49.60224 11.05213 7779 ft 274 kts 98°
2026-04-14 14:22 49.59941 11.08099 7406 ft 273 kts 98°
2026-04-14 14:22 49.59655 11.11011 7021 ft 272 kts 98°
2026-04-14 14:22 49.59375 11.13847 6647 ft 271 kts 98°
2026-04-14 14:22 49.59093 11.16701 6268 ft 270 kts 97°
2026-04-14 14:23 49.58810 11.19558 5892 ft 269 kts 97°
2026-04-14 14:23 49.58529 11.22382 5516 ft 268 kts 97°
2026-04-14 14:23 49.58245 11.25233 5120 ft 267 kts 97°
2026-04-14 14:23 49.57966 11.28030 4744 ft 266 kts 96°
2026-04-14 14:24 49.57684 11.30843 4392 ft 264 kts 96°
2026-04-14 14:24 49.57408 11.33587 4153 ft 259 kts 96°
2026-04-14 14:24 49.57134 11.36298 3963 ft 253 kts 97°
2026-04-14 14:24 49.56865 11.38950 3948 ft 245 kts 96°
2026-04-14 14:25 49.56564 11.41497 3968 ft 241 kts 98°
2026-04-14 14:25 49.56266 11.44020 3927 ft 238 kts 97°
2026-04-14 14:25 49.55801 11.46411 3931 ft 237 kts 117°
2026-04-14 14:25 49.54615 11.48158 3948 ft 239 kts 150°
2026-04-14 14:26 49.52998 11.48713 3949 ft 239 kts 180°
2026-04-14 14:26 49.51344 11.48415 3951 ft 238 kts 187°
2026-04-14 14:26 49.49723 11.48069 3949 ft 235 kts 188°
2026-04-14 14:26 49.48096 11.47725 3949 ft 233 kts 186°
2026-04-14 14:27 49.46508 11.47255 3944 ft 231 kts 201°
2026-04-14 14:27 49.45260 11.45804 3957 ft 225 kts 235°
2026-04-14 14:27 49.44746 11.43620 3943 ft 216 kts 271°
2026-04-14 14:27 49.45089 11.41461 3934 ft 206 kts 303°
2026-04-14 14:28 49.45901 11.39657 3961 ft 204 kts 309°
2026-04-14 14:28 49.46652 11.37787 3949 ft 207 kts 294°
2026-04-14 14:28 49.47013 11.35637 3961 ft 209 kts 283°
2026-04-14 14:28 49.47273 11.33435 3956 ft 210 kts 283°
2026-04-14 14:29 49.47512 11.31213 3867 ft 214 kts 282°
2026-04-14 14:29 49.47745 11.28953 3601 ft 208 kts 282°
2026-04-14 14:29 49.47963 11.26817 3331 ft 200 kts 282°
2026-04-14 14:29 49.48170 11.24767 3057 ft 184 kts 282°
2026-04-14 14:30 49.48349 11.22972 2811 ft 158 kts 282°
2026-04-14 14:30 49.48502 11.21446 2613 ft 132 kts 283°
2026-04-14 14:30 49.48637 11.20102 2448 ft 122 kts 283°
2026-04-14 14:30 49.48765 11.18829 2283 ft 118 kts 283°
2026-04-14 14:31 49.48889 11.17595 2126 ft 118 kts 284°
2026-04-14 14:31 49.49017 11.16366 2029 ft 113 kts 283°
2026-04-14 14:31 49.49136 11.15155 1864 ft 116 kts 283°
2026-04-14 14:31 49.49264 11.13893 1666 ft 119 kts 281°
2026-04-14 14:32 49.49379 11.12655 1482 ft 117 kts 282°
2026-04-14 14:32 49.49505 11.11420 1324 ft 116 kts 281°
2026-04-14 14:32 49.49632 11.10175 1144 ft 117 kts 282°
2026-04-14 14:32 49.49754 11.08997 1038 ft 99 kts 279°
2026-04-14 14:33 49.49833 11.08185 1027 ft 57 kts 278°
2026-04-14 14:33 49.49874 11.07753 1023 ft 25 kts 278°
2026-04-14 14:33 49.49831 11.07649 1023 ft 11 kts 161°
2026-04-14 14:33 49.49767 11.07695 1023 ft 8 kts 152°
2026-04-14 14:34 49.49750 11.07708 1023 ft 0 kts 153°
2026-04-14 14:37 49.49743 11.07713 1023 ft 3 kts 153°
2026-04-14 14:37 49.49709 11.07739 1023 ft 6 kts 153°
2026-04-14 14:37 49.49679 11.07762 1023 ft 2 kts 154°
2026-04-14 14:37 49.49677 11.07764 1023 ft 0 kts 154°
2026-04-14 14:38 49.49675 11.07765 1023 ft 2 kts 154°
2026-04-14 14:39 49.49642 11.07770 1023 ft 7 kts 188°
2026-04-14 14:39 49.49592 11.07720 1023 ft 11 kts 266°
2026-04-14 14:39 49.49603 11.07600 1022 ft 11 kts 278°
2026-04-14 14:39 49.49616 11.07468 1021 ft 13 kts 278°
2026-04-14 14:40 49.49630 11.07328 1021 ft 12 kts 279°
2026-04-14 14:40 49.49631 11.07228 1020 ft 7 kts 231°
2026-04-14 14:40 49.49580 11.07207 1020 ft 9 kts 189°
2026-04-14 14:40 49.49519 11.07191 1020 ft 8 kts 201°
2026-04-14 14:41 49.49509 11.07097 1020 ft 10 kts 277°
2026-04-14 14:41 49.49521 11.06982 1019 ft 9 kts 277°
2026-04-14 14:41 49.49487 11.06936 1019 ft 7 kts 186°
2026-04-14 14:41 49.49430 11.06923 1019 ft 5 kts 183°
2026-04-14 14:42 49.49419 11.06945 1019 ft 2 kts 87°
2026-04-14 14:42 49.49419 11.06959 1019 ft 0 kts 89°